Theta_e
315 317 319 318 317 318 320 323 324 323 320 318 320 323 324 333 336 336 335 335 335 334 331 331 332 333 333 332 332 333 331 330 330 331 331 332 332 330 320 318 317 317 317 317
316 319 320 317 319 321 321 322 321 321 320 320 325 325 326 332 337 337 335 333 333 332 331 331 331 331 333 331 332 330 331 330 330 331 332 331 330 321 319 317 317 317 317 317
318 320 321 321 322 323 322 323 324 324 321 318 323 326 322 327 335 337 335 333 331 330 330 330 331 331 334 330 331 332 330 330 331 333 332 330 321 319 317 316 316 317 317 316
321 320 321 322 324 321 325 323 324 324 322 322 318 328 323 323 331 334 335 333 332 330 329 329 330 331 332 330 330 332 332 331 333 332 325 321 320 318 318 318 318 317 316 313
323 323 322 323 323 322 325 321 323 321 319 319 318 324 322 323 331 331 332 333 332 330 329 328 329 330 331 330 330 333 332 332 331 325 322 320 320 319 318 317 317 315 313 313
322 321 322 323 321 322 321 321 317 317 316 319 319 323 323 323 324 324 322 322 330 331 329 328 330 331 331 330 330 333 333 330 326 323 321 321 319 317 316 316 314 313 313 312
323 323 323 323 324 321 319 318 319 319 321 322 318 322 321 319 320 321 322 324 325 329 329 328 329 329 329 329 330 332 330 325 323 321 320 316 315 317 315 314 313 313 310 308
324 327 326 324 324 324 321 319 320 326 323 321 320 325 322 320 320 319 321 327 330 330 328 327 328 328 329 330 328 326 323 321 319 317 315 315 316 316 314 313 312 309 307 307
328 329 326 324 323 324 324 323 318 319 320 322 320 322 320 322 322 320 322 328 329 329 326 325 326 327 325 324 326 323 320 318 315 314 314 316 316 314 313 311 308 307 307 308
326 329 327 329 325 323 324 319 325 320 327 329 323 324 323 323 322 320 321 322 324 323 323 323 325 324 320 320 319 318 316 314 314 314 315 315 314 313 312 309 308 307 307 309
322 324 326 326 325 327 325 322 319 318 321 324 324 321 318 320 319 319 319 318 318 317 317 319 320 318 317 317 316 314 314 314 314 314 314 314 313 312 310 308 307 307 309 308
325 320 324 326 324 323 323 321 318 323 322 321 319 321 317 318 317 317 317 316 314 313 313 313 315 315 315 314 314 314 314 313 313 314 314 312 311 310 309 308 307 309 309 308
324 322 324 323 321 324 326 321 317 315 315 321 322 322 318 320 318 318 317 315 314 314 313 312 312 312 314 314 314 313 313 313 314 313 312 310 308 308 308 307 308 308 308 308
325 321 322 325 322 322 325 325 321 319 320 321 320 320 319 321 322 319 317 316 314 312 313 312 311 312 313 313 313 313 313 314 313 312 310 308 307 307 307 308 308 308 308 308
322 328 328 325 326 326 326 326 325 322 321 323 322 322 320 318 319 318 316 315 314 314 313 312 311 311 312 313 313 313 313 312 312 310 309 307 306 306 307 308 308 308 308 308
318 327 325 326 327 328 327 327 326 325 322 321 323 323 318 319 317 318 317 316 315 314 313 312 312 312 313 313 313 313 312 312 311 309 307 306 306 307 308 308 308 308 307 307
322 324 321 325 328 326 325 327 326 324 323 323 324 321 321 320 319 318 317 315 316 315 314 314 313 313 313 313 313 312 311 311 309 307 305 306 306 307 308 308 308 307 307 307
324 323 322 326 326 331 324 325 327 327 328 326 325 323 321 321 320 319 315 315 315 315 315 314 315 314 314 313 312 312 311 309 307 305 305 305 306 307 308 307 307 306 306 306
322 325 327 330 327 327 330 327 329 327 325 328 326 324 322 321 321 321 318 316 316 315 316 316 316 316 314 313 312 311 309 308 306 305 305 305 307 307 307 307 305 305 305 306
323 322 326 327 332 333 328 326 326 322 326 323 327 325 324 322 324 321 318 319 319 319 319 319 319 315 313 312 312 310 308 306 305 305 305 306 307 307 306 304 303 304 305 306
326 324 329 325 328 326 324 326 322 328 327 322 325 325 322 322 319 319 318 317 318 319 319 319 317 314 313 312 310 308 306 305 305 305 306 307 307 306 304 303 303 305 306 307
324 326 326 323 328 331 325 326 327 322 319 324 323 324 324 323 321 317 316 316 317 318 319 319 317 315 311 310 309 307 306 305 305 305 307 307 306 304 303 304 305 306 306 307
324 322 325 324 324 320 321 321 320 317 322 324 322 322 321 318 316 317 316 316 317 318 319 320 317 311 310 309 308 307 306 305 305 306 307 307 305 304 304 304 305 305 306 307
320 321 324 324 321 323 323 321 324 322 322 322 321 319 318 318 317 317 316 316 317 319 319 320 315 309 308 308 308 307 305 305 306 307 307 307 305 304 305 305 305 305 306 306
317 320 322 321 322 322 325 324 323 324 323 321 321 319 319 318 318 318 315 317 318 319 320 319 314 309 308 308 308 306 305 306 307 307 307 306 305 304 304 304 305 305 306 306
313 315 321 321 321 321 322 322 322 318 317 316 318 318 318 319 318 318 317 318 318 318 319 318 311 309 309 309 307 306 306 306 307 308 307 305 303 303 304 304 304 305 305 306
Wind_Speed
5 6 1 4 4 4 6 3 2 3 4 5 4 4 7 3 6 6 5 5 6 7 4 6 4 3 2 6 9 12 13 11 9 7 7 7 7 9 8 10 12 12 13 13
6 1 3 3 6 7 5 2 3 4 5 6 2 7 5 4 2 1 3 6 8 5 4 11 7 7 4 5 9 9 13 11 10 10 10 8 9 10 12 12 11 13 13 14
4 4 1 6 5 6 1 4 1 3 4 6 4 7 7 2 3 2 1 2 5 7 8 5 9 8 9 9 10 14 12 12 11 9 9 11 10 12 15 15 17 15 15 15
2 4 6 5 3 4 1 2 2 3 4 2 3 2 4 5 5 3 4 5 7 7 6 6 9 14 13 12 10 12 14 14 12 13 12 10 12 16 17 17 17 16 15 19
1 4 5 6 1 3 2 3 3 3 4 4 8 5 5 3 3 5 6 8 8 7 8 8 12 15 16 14 11 14 16 17 14 13 11 12 15 16 18 18 16 17 20 20
2 1 2 4 2 3 2 4 7 4 4 4 5 3 3 4 6 3 4 6 8 7 7 9 13 13 14 15 15 15 16 16 13 12 12 14 16 17 18 16 18 20 22 21
6 4 4 2 4 6 7 7 4 6 6 3 5 3 7 5 4 5 7 8 8 7 6 5 8 10 12 15 17 14 15 11 10 11 12 12 15 15 13 16 18 19 22 24
4 4 1 2 2 5 4 5 5 1 1 5 5 0 5 2 3 4 5 6 6 7 3 6 9 11 13 12 10 10 7 8 9 8 12 16 16 14 15 16 15 18 20 22
4 2 3 4 2 3 2 4 4 6 2 2 3 5 6 0 2 1 5 6 8 5 6 7 10 14 8 10 9 6 7 7 8 12 15 14 13 15 15 14 17 21 19 20
7 3 2 2 1 6 3 5 4 3 1 3 4 4 5 5 8 7 8 9 7 5 5 5 10 9 6 3 4 5 6 7 10 12 12 12 13 14 14 16 18 20 21 20
4 4 4 1 4 1 2 2 6 4 4 5 1 5 7 9 10 11 9 7 7 6 5 6 4 5 5 5 6 6 7 9 11 10 11 13 14 15 17 17 21 20 19 23
1 5 3 1 2 3 2 3 4 5 4 1 3 7 4 7 9 9 6 6 5 4 3 1 6 7 7 9 10 9 10 12 12 11 12 13 13 17 17 19 20 19 21 21
5 3 3 7 6 4 5 3 5 5 3 4 4 6 3 5 2 3 7 7 4 4 2 3 4 8 12 13 12 12 12 13 10 10 11 13 16 16 17 19 19 20 21 17
8 3 6 6 5 3 2 1 2 5 3 3 6 7 7 4 2 5 5 3 5 5 6 4 4 12 14 15 14 13 13 11 10 10 12 15 16 17 17 18 18 21 17 15
4 4 3 2 1 2 1 2 1 4 5 5 5 4 7 7 9 8 4 3 4 5 6 7 7 13 17 18 16 14 13 11 10 10 13 16 17 16 17 17 21 19 16 14
4 2 2 1 1 2 1 2 4 3 0 5 3 5 6 3 1 2 1 6 7 6 8 8 8 14 21 22 18 13 12 9 8 11 15 15 15 16 17 17 21 17 16 13
3 5 3 3 2 2 4 3 3 3 4 3 3 5 5 4 2 2 5 6 6 8 9 9 9 20 24 18 14 9 9 7 8 13 15 14 16 17 17 20 18 16 15 13
4 4 3 2 3 1 5 2 4 4 4 3 3 4 1 1 3 5 5 6 8 9 9 9 18 22 17 10 7 8 4 4 9 13 13 14 16 18 20 18 16 15 14 12
3 4 3 4 3 4 4 4 5 4 6 2 1 3 3 3 3 5 6 3 6 6 15 22 23 18 9 7 9 5 2 5 10 11 13 15 17 15 19 16 18 14 12 10
6 6 4 3 4 6 7 2 3 4 5 3 2 1 1 2 2 4 7 6 7 14 16 17 16 9 6 8 7 4 2 8 9 10 14 15 13 18 15 18 14 11 10 7
2 3 3 2 3 6 6 3 4 4 7 2 1 2 3 2 4 3 6 7 9 12 17 18 14 9 7 8 7 3 5 9 8 10 13 13 15 13 15 15 13 12 10 5
4 4 3 3 1 6 4 4 6 6 2 2 1 1 2 2 2 3 5 7 14 15 18 18 11 12 5 7 5 4 7 7 8 10 12 14 10 16 16 14 13 12 10 6
1 6 4 7 6 4 4 2 1 3 3 2 3 2 2 4 4 4 5 7 12 16 21 22 15 4 7 7 4 6 7 7 8 10 10 11 10 16 16 15 15 14 11 10
2 3 3 2 2 5 6 3 2 4 3 4 3 3 2 3 3 5 6 8 14 21 23 24 13 7 10 7 3 5 5 6 8 10 10 8 10 14 16 18 16 16 12 10
5 5 4 3 5 4 2 4 5 4 3 4 4 3 2 3 4 3 5 9 17 22 26 25 11 7 9 7 4 4 5 6 9 9 7 8 8 10 14 16 17 14 13 9
4 6 4 5 6 4 2 3 3 5 4 5 4 2 2 4 4 5 8 13 18 23 26 22 3 9 10 6 4 4 4 7 8 6 7 8 7 7 11 12 12 14 13 12
Wind_Direction
7 51 333 228 198 116 96 83 90 310 0 77 37 76 342 358 74 122 174 181 220 230 247 228 245 249 235 221 225 206 205 210 211 203 225 255 267 298 290 315 319 316 318 319
15 285 279 135 105 96 66 42 343 298 11 88 20 39 77 34 38 352 187 218 235 279 260 241 265 264 268 253 233 231 220 229 236 250 260 267 287 292 299 310 314 317 314 318
156 241 112 113 90 90 74 135 226 224 19 46 41 7 359 64 85 49 103 260 270 256 270 284 272 268 254 269 244 236 231 243 248 255 263 279 288 300 307 314 313 305 307 311
206 315 121 105 86 105 15 262 268 267 70 184 42 230 327 345 355 333 273 264 257 252 257 258 255 252 246 252 256 238 240 243 241 261 267 283 299 298 305 306 302 303 305 312
302 55 68 75 319 158 199 45 32 61 93 87 352 80 268 4 334 275 268 247 245 240 237 247 250 256 251 248 258 237 233 236 254 257 273 293 294 294 303 303 306 312 313 311
56 336 66 136 76 52 123 83 43 51 67 41 309 108 287 182 210 243 265 253 251 247 243 250 257 270 267 250 248 240 239 245 256 272 294 299 299 306 309 316 317 314 311 310
8 351 322 126 75 19 52 53 3 11 13 232 334 46 233 265 257 219 231 249 246 245 238 249 244 243 244 238 236 238 239 250 274 294 297 298 307 312 311 312 313 311 311 311
123 340 28 3 161 157 55 115 138 216 262 274 320 321 276 262 282 300 251 269 251 242 241 240 230 222 227 233 234 232 252 276 291 294 301 306 300 293 297 299 296 306 309 312
136 260 320 43 90 128 149 58 160 105 14 40 286 300 327 27 258 305 246 241 241 232 225 231 230 226 255 263 255 247 274 289 292 300 301 292 288 291 293 296 308 318 314 313
197 100 63 311 69 40 105 148 58 18 139 282 299 277 241 246 234 244 247 235 245 240 233 238 239 242 246 244 240 250 256 274 292 294 288 286 287 288 291 300 312 313 312 320
123 102 283 17 21 196 21 32 51 112 122 172 238 266 220 225 217 211 228 236 244 251 248 245 237 216 221 225 218 231 261 280 287 285 282 287 290 291 294 303 311 314 316 322
93 123 109 205 315 267 100 95 111 107 275 125 158 271 259 256 245 205 220 232 248 268 264 162 193 198 197 210 222 244 262 275 276 272 283 295 293 296 298 306 315 317 319 323
180 38 57 354 354 357 64 56 106 105 86 208 138 269 323 339 12 207 201 226 257 252 182 180 186 205 218 231 243 251 261 278 269 280 292 301 306 302 302 311 317 321 321 323
87 103 145 186 201 175 114 12 102 125 125 206 229 283 306 306 250 215 210 185 201 198 203 213 233 238 239 243 250 259 276 277 278 282 296 308 311 308 306 313 320 327 327 329
93 110 135 160 126 129 200 319 10 210 217 177 268 228 278 255 220 224 188 140 182 201 231 229 233 241 246 248 252 258 269 274 272 291 305 313 312 308 312 318 327 331 330 333
6 143 114 125 57 9 268 323 291 228 304 261 273 270 214 305 323 59 220 209 225 215 244 250 251 253 252 250 251 258 263 279 283 301 312 316 313 312 320 326 332 332 337 337
77 129 95 238 334 34 349 227 244 270 226 213 237 262 342 356 7 237 231 217 233 238 246 253 252 255 257 259 263 275 277 256 293 313 321 317 316 319 329 334 335 339 342 346
119 95 76 168 22 193 242 247 232 238 269 251 274 321 20 37 292 282 228 206 232 239 258 277 278 283 286 270 242 248 243 303 320 324 321 319 321 327 336 338 342 343 343 345
69 112 91 138 189 287 291 208 182 175 276 194 247 331 36 11 15 323 5 275 287 315 296 293 303 301 289 230 218 203 227 312 328 328 323 325 329 332 336 342 337 336 344 354
68 69 115 139 169 211 239 184 140 101 298 265 173 288 236 87 30 280 335 335 338 330 339 331 329 300 243 207 191 162 338 339 339 332 330 332 335 334 347 340 348 345 348 355
37 28 159 134 224 289 245 177 146 90 239 207 206 217 152 170 200 253 329 344 333 327 337 339 328 294 246 193 160 90 2 354 344 338 338 342 340 358 357 356 352 1 5 26
183 157 206 100 144 273 165 84 167 213 216 187 175 90 102 165 355 351 354 341 352 347 347 343 306 269 214 155 131 67 18 6 347 342 348 349 8 13 11 4 16 21 29 91
233 183 190 174 217 261 277 256 269 155 144 180 142 176 123 51 19 0 344 337 332 344 347 342 308 267 161 155 111 47 30 12 353 350 356 1 23 23 19 30 31 33 45 89
247 156 170 76 266 261 274 269 187 179 172 167 129 105 67 68 15 4 354 348 345 341 335 333 310 193 160 156 110 51 25 9 353 357 2 26 32 33 40 47 41 45 54 58
194 126 162 252 273 278 274 206 170 143 107 101 93 107 99 88 24 2 335 341 344 339 335 332 314 184 165 156 110 51 18 7 358 8 37 42 36 44 49 47 40 46 52 54
182 175 160 218 220 159 190 163 152 121 113 124 121 94 51 52 22 347 340 341 340 338 334 334 4 160 160 154 111 55 35 13 1 27 53 54 45 40 56 47 50 57 57 61